Location: Alpine
(43.1636°N, 111.0180°W)
Time: 05:24:07
(UTC+00:00)

Tiros 1 despin weight - Pass Details

Date: 04 June 2022
Orbit: 591 x 639 km, 48.2° (Epoch: 30 June)

Event Time Altitude Azimuth Distance (km) Brightness Sun altitude
Rises 00:18:37 0° 272° (W) 2,898 ? 26.5°
Reaches altitude 10° 00:21:02 10° 278° (W) 1,984 ? 26.0°
Maximum altitude 00:25:25 46° 352° (N) 827 ? 25.3°
Drops below altitude 10° 00:29:45 10° 67° (ENE) 1,955 ? 24.5°
Sets 00:32:07 0° 73° (ENE) 2,851 ? 24.0°
